FW6883 Weather Reports


Display with metric or nautical units.
time (UTC)temp
F
wind
direction
speed
MPH
gust
MPH
rain 1hr
in
rain 24hr
in
rain mn
in
humidity
%
barometer
mb
20260902234502 64 98 6.0 13.0 0.00 0.00 0.00 25 1007.7
20260902233103 64 92 5.0 12.0 0.00 0.00 0.00 25 1007.7
20260902231557 65 96 6.0 10.0 0.00 0.00 0.00 26 1007.8
20260902230106 66 99 4.0 12.0 0.00 0.00 0.00 27 1007.8
20260902224557 65 96 4.0 10.0 0.00 0.00 0.00 25 1007.9
20260902223053 64 94 2.0 11.0 0.00 0.00 0.00 26 1008.1
20260902221552 65 108 4.0 11.0 0.00 0.00 0.00 25 1008.3
20260902220054 65 64 4.0 10.0 0.00 0.00 0.00 24 1008.3
20260902214544 65 69 3.0 11.0 0.00 0.00 0.00 24 1008.4
20260902213048 65 71 4.0 11.0 0.00 0.00 0.00 21 1008.7
20260902211542 64 73 6.0 15.0 0.00 0.00 0.00 26 1008.6
20260902210039 65 82 6.0 13.0 0.00 0.00 0.00 24 1008.9
20260902204535 66 104 5.0 11.0 0.00 0.00 0.00 20 1009.0
20260902203032 65 75 3.0 11.0 0.00 0.00 0.00 18 1009.2
20260902201530 65 86 3.0 10.0 0.00 0.00 0.00 15 1009.0
20260902200030 66 110 4.0 9.0 0.00 0.00 0.00 14 1009.3
20260902194525 66 94 3.0 9.0 0.00 0.00 0.00 15 1009.3
20260902193025 66 115 2.0 10.0 0.00 0.00 0.00 14 1009.4
20260902191522 65 39 3.0 13.0 0.00 0.00 0.00 14 1009.4
20260902190028 66 111 3.0 11.0 0.00 0.00 0.00 14 1009.5
20260902184515 65 84 1.0 9.0 0.00 0.00 0.00 13 1009.6
20260902183014 65 105 4.0 11.0 0.00 0.00 0.00 15 1009.6
20260902181511 65 97 3.0 11.0 0.00 0.00 0.00 15 1009.9
20260902180013 64 96 2.0 10.0 0.00 0.00 0.00 15 1009.9
20260902174500 64 96 4.0 10.0 0.00 0.00 0.00 17 1009.7
20260902173100 63 94 3.0 8.0 0.00 0.00 0.00 17 1009.6
20260902171618 64 51 2.0 7.0 0.00 0.00 0.00 17 1009.7
20260902170054 63 129 3.0 8.0 0.00 0.00 0.00 17 1009.5
20260902164553 63 110 3.0 11.0 0.00 0.00 0.00 17 1009.5
20260902163050 63 93 2.0 8.0 0.00 0.00 0.00 16 1009.3
20260902161548 62 103 4.0 11.0 0.00 0.00 0.00 16 1009.4
20260902160045 62 105 4.0 10.0 0.00 0.00 0.00 16 1009.1
20260902154540 62 113 3.0 9.0 0.00 0.00 0.00 15 1009.1
20260902153038 61 105 2.0 10.0 0.00 0.00 0.00 15 1009.0
20260902151536 61 111 1.0 4.0 0.00 0.00 0.00 16 1008.7
20260902150033 61 136 2.0 6.0 0.00 0.00 0.00 16 1008.8
20260902144531 60 120 1.0 7.0 0.00 0.00 0.00 16 1008.9
20260902143023 59 110 1.0 5.0 0.00 0.00 0.00 18 1008.9
20260902141525 58 118 1.0 5.0 0.00 0.00 0.00 17 1008.7
20260902140015 57 155 2.0 6.0 0.00 0.00 0.00 19 1008.4
20260902134516 56 124 3.0 8.0 0.00 0.00 0.00 19 1008.5
20260902133008 56 123 1.0 4.0 0.00 0.00 0.00 20 1008.2
20260902131505 56 108 1.0 3.0 0.00 0.00 0.00 22 1008.2
20260902130002 55 114 0.0 2.0 0.00 0.00 0.00 26 1008.3
20260902124600 55 101 0.0 3.0 0.00 0.00 0.00 28 1008.2
20260902123101 55 144 0.0 3.0 0.00 0.00 0.00 28 1008.3
20260902121555 55 115 0.0 5.0 0.00 0.00 0.00 29 1008.0
20260902120058 54 131 0.0 2.0 0.00 0.00 0.00 44 1008.1
20260902114551 53 60 0.0 1.0 0.00 0.00 0.00 43 1008.2
20260902113048 54 60 0.0 3.0 0.00 0.00 0.00 40 1008.0
20260902111550 54 107 0.0 2.0 0.00 0.00 0.00 41 1008.0
20260902110045 54 139 0.0 6.0 0.00 0.00 0.00 37 1008.0
20260902104542 54 75 0.0 3.0 0.00 0.00 0.00 38 1008.0
20260902103038 54 117 1.0 6.0 0.00 0.00 0.00 37 1008.1
20260902101537 54 124 0.0 3.0 0.00 0.00 0.00 28 1008.0
20260902100034 54 124 1.0 3.0 0.00 0.00 0.00 29 1008.1
20260902094532 54 113 1.0 4.0 0.00 0.00 0.00 32 1008.0
20260902093031 54 115 0.0 5.0 0.00 0.00 0.00 27 1008.0
20260902091528 54 125 0.0 2.0 0.00 0.00 0.00 25 1007.9
20260902090024 55 112 0.0 3.0 0.00 0.00 0.00 25 1007.9
20260902084529 55 117 2.0 5.0 0.00 0.00 0.00 27 1008.2
20260902083019 55 113 2.0 5.0 0.00 0.00 0.00 30 1007.9
20260902081517 55 105 3.0 7.0 0.00 0.00 0.00 32 1007.9
20260902080012 56 117 4.0 8.0 0.00 0.00 0.00 35 1008.1
20260902074509 56 115 3.0 9.0 0.00 0.00 0.00 35 1007.7
20260902073004 55 115 4.0 8.0 0.00 0.00 0.00 36 1007.5
20260902071600 55 139 3.0 7.0 0.00 0.00 0.00 39 1007.6
20260902070054 55 111 3.0 6.0 0.00 0.00 0.00 39 1007.3
20260902064552 55 113 4.0 7.0 0.00 0.00 0.00 40 1007.4
20260902063109 55 124 1.0 4.0 0.00 0.00 0.00 40 1007.6
20260902061552 56 146 1.0 6.0 0.00 0.00 0.00 39 1007.6
20260902060059 56 108 3.0 9.0 0.00 0.00 0.00 39 1007.4
20260902054555 56 98 3.0 11.0 0.00 0.00 0.00 39 1007.2
20260902053040 56 125 1.0 7.0 0.00 0.00 0.00 39 1007.8
20260902051546 56 97 2.0 5.0 0.00 0.00 0.00 41 1007.7
20260902050036 56 113 0.0 5.0 0.00 0.00 0.00 40 1007.7
20260902044536 56 110 1.0 8.0 0.00 0.00 0.00 39 1007.6
20260902043030 56 96 4.0 8.0 0.00 0.00 0.00 40 1007.6
20260902041541 56 120 0.0 4.0 0.00 0.00 0.00 41 1007.2
20260902040027 57 114 1.0 6.0 0.00 0.00 0.00 41 1007.0
20260902034524 56 117 0.0 3.0 0.00 0.00 0.00 42 1007.0
20260902033023 56 100 0.0 4.0 0.00 0.00 0.00 42 1006.9
20260902031521 56 103 0.0 4.0 0.00 0.00 0.00 46 1006.4
20260902030019 56 91 0.0 7.0 0.00 0.00 0.00 48 1006.1
20260902024517 56 210 3.0 6.0 0.00 0.00 0.00 49 1006.3
20260902023012 56 105 2.0 5.0 0.00 0.00 0.00 44 1006.3
20260902021508 57 105 4.0 8.0 0.00 0.00 0.00 43 1006.2
20260902020006 59 107 3.0 10.0 0.00 0.00 0.00 43 1006.0
20260902014503 61 103 4.0 11.0 0.00 0.00 0.00 40 1006.2
20260902013002 62 104 4.0 12.0 0.00 0.00 0.00 39 1006.3
20260902011559 63 118 4.0 11.0 0.00 0.00 0.00 39 1006.3
20260902010059 64 110 5.0 15.0 0.00 0.00 0.00 38 1006.4
20260902004559 64 102 6.0 16.0 0.00 0.00 0.00 38 1006.4
20260902003155 65 78 6.0 11.0 0.00 0.00 0.00 36 1006.6
20260902001552 66 89 5.0 13.0 0.00 0.00 0.00 35 1006.9
20260902000050 66 91 6.0 12.0 0.00 0.00 0.00 34 1006.7